EW4645 Weather Reports


time (UTC)temp
C
wind
direction
speed
KPH
gust
KPH
rain 1hr
cm
rain 24hr
cm
rain mn
cm
humidity
%
barometer
mb
20260506044504 8 346 0.0 4.8 0.00 0.00 0.00 90 1014.3
20260506043006 8 346 0.0 4.8 0.00 0.00 0.00 89 1014.3
20260506041504 8 346 1.6 9.7 0.00 0.00 0.00 89 1014.4
20260506040006 9 333 4.8 12.9 0.00 0.00 0.00 89 1014.5
20260506034504 8 315 3.2 9.7 0.00 0.00 0.00 88 1014.6
20260506033006 8 0 0.0 0.0 0.00 0.00 0.00 87 1014.6
20260506031504 9 298 0.0 4.8 0.00 0.00 0.00 86 1014.7
20260506024504 9 298 1.6 4.8 0.00 0.00 0.00 85 1014.8
20260506023006 9 298 3.2 9.7 0.00 0.00 0.00 84 1014.7
20260506020006 9 297 6.4 11.3 0.00 0.00 0.00 84 1014.9
20260506014504 10 298 4.8 9.7 0.00 0.00 0.00 83 1014.9
20260506013006 10 297 3.2 9.7 0.00 0.00 0.00 83 1015.0
20260506011504 10 297 4.8 9.7 0.00 0.00 0.00 83 1015.1
20260506010006 10 294 3.2 9.7 0.00 0.00 0.00 82 1015.2
20260506004504 10 294 0.0 6.4 0.00 0.00 0.00 82 1015.3
20260506003006 10 294 1.6 8.0 0.00 0.00 0.00 82 1015.3
20260506001503 10 262 1.6 6.4 0.00 0.00 0.00 81 1015.3
20260506000006 10 156 0.0 4.8 0.00 0.00 0.00 81 1015.4
20260505234504 10 0 0.0 0.0 0.00 0.00 0.00 80 1015.3
20260505233006 10 0 0.0 0.0 0.00 0.00 0.00 80 1015.4
20260505231504 10 0 0.0 0.0 0.00 0.00 0.00 80 1015.5
20260505230008 10 0 0.0 0.0 0.00 0.00 0.00 81 1015.6
20260505224504 10 0 0.0 0.0 0.00 0.00 0.00 81 1015.7
20260505223006 10 0 0.0 0.0 0.00 0.00 0.00 83 1015.9
20260505221504 10 0 0.0 0.0 0.00 0.00 0.00 83 1015.9
20260505220006 10 0 0.0 0.0 0.00 0.00 0.00 84 1016.0
20260505214504 10 167 1.6 9.7 0.00 0.00 0.00 83 1016.0
20260505213006 10 167 1.6 8.0 0.00 0.00 0.00 83 1016.0
20260505211504 10 168 1.6 8.0 0.00 0.00 0.00 83 1016.0
20260505203006 10 158 1.6 8.0 0.00 0.00 0.00 83 1016.0
20260505201504 10 112 1.6 11.3 0.00 0.00 0.00 82 1016.0
20260505200006 10 172 3.2 12.9 0.00 0.00 0.00 82 1016.0
20260505194504 10 170 1.6 14.5 0.00 0.00 0.00 81 1015.8
20260505191506 11 170 3.2 12.9 0.00 0.00 0.00 80 1015.8
20260505190006 10 160 3.2 16.1 0.00 0.00 0.00 80 1015.7
20260505184504 11 168 3.2 16.1 0.00 0.00 0.00 81 1015.6
20260505183006 11 157 4.8 14.5 0.00 0.00 0.00 82 1015.6
20260505181505 10 144 6.4 19.3 0.00 0.00 0.00 82 1015.6
20260505180006 11 145 3.2 11.3 0.00 0.00 0.00 83 1015.7
20260505174504 11 120 8.0 16.1 0.00 0.00 0.00 81 1015.8
20260505173006 11 119 8.0 22.5 0.00 0.00 0.00 77 1015.7
20260505170006 13 337 9.7 25.7 0.00 0.00 0.00 68 1015.6
20260505164504 13 336 4.8 17.7 0.00 0.00 0.00 67 1015.6
20260505163006 13 325 12.9 30.6 0.00 0.00 0.00 65 1015.6
20260505153006 14 341 8.0 22.5 0.00 0.00 0.00 60 1015.7
20260505151504 14 320 9.7 22.5 0.00 0.00 0.00 62 1015.7
20260505124504 14 302 9.7 38.6 0.00 0.00 0.00 63 1016.1
20260505123006 13 357 9.7 25.7 0.00 0.00 0.00 63 1016.2
20260505121504 13 27 9.7 22.5 0.00 0.00 0.00 63 1016.1
20260505120006 13 13 12.9 40.2 0.00 0.00 0.00 62 1016.1
20260505114504 13 43 12.9 29.0 0.00 0.00 0.00 60 1016.1
20260505101504 13 5 17.7 49.9 0.00 0.00 0.00 61 1016.4
20260505100006 13 356 14.5 33.8 0.00 0.00 0.00 63 1016.5
20260505094504 13 340 14.5 32.2 0.00 0.00 0.00 67 1016.4
20260505093006 12 357 16.1 37.0 0.00 0.00 0.00 71 1016.5
20260505091503 12 5 14.5 43.5 0.00 0.00 0.00 69 1016.5
20260505090005 12 9 12.9 32.2 0.00 0.00 0.00 72 1016.4
20260505083005 11 23 11.3 24.1 0.00 0.00 0.00 75 1016.6
20260505081504 11 36 11.3 35.4 0.00 0.00 0.00 76 1016.5
20260505074504 11 354 16.1 32.2 0.00 0.00 0.00 76 1016.5
20260505073006 11 346 14.5 37.0 0.00 0.00 0.00 76 1016.4
20260505071504 11 331 12.9 32.2 0.00 0.00 0.00 77 1016.4
20260505070005 10 330 12.9 32.2 0.00 0.00 0.00 78 1016.4
20260505064505 10 334 11.3 29.0 0.00 0.00 0.00 79 1016.4
20260505063005 10 325 9.7 25.7 0.00 0.00 0.00 80 1016.4
20260505061504 9 342 11.3 30.6 0.00 0.00 0.00 82 1016.4
20260505060005 8 333 11.3 27.4 0.00 0.00 0.00 84 1016.4
20260505054504 8 328 9.7 25.7 0.00 0.00 0.00 83 1016.3
20260505053005 8 344 14.5 30.6 0.00 0.00 0.00 81 1016.3